2023/02/21 00:00:00,120.2,-3.6
2023/02/21 00:10:00,120.0,-3.9
2023/02/21 00:20:00,120.0,-3.9
2023/02/21 00:30:00,119.7,-3.3
2023/02/21 00:40:00,120.2,-3.8
2023/02/21 00:50:00,119.8,-3.6
2023/02/21 01:00:00,120.2,-3.6
2023/02/21 01:10:00,120.4,-3.9
2023/02/21 01:20:00,120.5,-4.0
2023/02/21 01:30:00,120.4,-4.0
2023/02/21 01:40:00,120.3,-4.1
2023/02/21 01:50:00,120.4,-3.9
2023/02/21 02:00:00,120.4,-3.8
2023/02/21 02:10:00,120.5,-3.9
2023/02/21 02:20:00,120.4,-4.1
2023/02/21 02:30:00,120.4,-4.0
2023/02/21 02:40:00,120.3,-4.3
2023/02/21 02:50:00,120.6,-4.3
2023/02/21 03:00:00,120.4,-4.1
2023/02/21 03:10:00,120.3,-4.2
2023/02/21 03:20:00,120.2,-4.3
2023/02/21 03:30:00,120.1,-4.1
2023/02/21 03:40:00,120.5,-4.3
2023/02/21 03:50:00,120.8,-4.4
2023/02/21 04:00:00,120.8,-4.1
2023/02/21 04:10:00,120.7,-4.1
2023/02/21 04:20:00,120.6,-4.3
2023/02/21 04:30:00,120.5,-4.3
2023/02/21 04:40:00,120.0,-4.0
2023/02/21 04:50:00,120.2,-4.3
2023/02/21 05:00:00,120.2,-4.0
2023/02/21 05:10:00,120.0,-3.9
2023/02/21 05:20:00,120.1,-4.3
2023/02/21 05:30:00,120.1,-4.3
2023/02/21 05:40:00,120.2,-4.4
2023/02/21 05:50:00,119.6,-4.3
2023/02/21 06:00:00,119.7,-4.4
2023/02/21 06:10:00,119.9,-3.9
2023/02/21 06:20:00,120.3,-4.2
2023/02/21 06:30:00,120.0,-4.1
2023/02/21 06:40:00,120.0,-4.2
2023/02/21 06:50:00,119.9,-4.3
2023/02/21 07:00:00,119.8,-4.1
2023/02/21 07:10:00,119.8,-4.2
2023/02/21 07:20:00,119.6,-3.5
2023/02/21 07:30:00,120.3,-4.3
2023/02/21 07:40:00,120.8,-4.2
2023/02/21 07:50:00,121.5,-4.0
2023/02/21 08:00:00,121.5,-4.0
2023/02/21 08:10:00,120.9,-3.5
2023/02/21 08:20:00,120.9,-3.4
2023/02/21 08:30:00,120.9,-3.2
2023/02/21 08:40:00,121.0,-3.6
2023/02/21 08:50:00,121.4,-3.5
2023/02/21 09:00:00,121.9,-3.6
2023/02/21 09:10:00,121.9,-3.5
2023/02/21 09:20:00,122.7,-3.5
2023/02/21 09:30:00,122.9,-3.5
2023/02/21 09:40:00,123.1,-3.3
2023/02/21 09:50:00,123.8,-3.3
2023/02/21 10:00:00,123.5,-2.8
2023/02/21 10:10:00,124.0,-3.1
2023/02/21 10:20:00,124.0,-3.0
2023/02/21 10:30:00,124.0,-2.9
2023/02/21 10:40:00,124.4,-3.2
2023/02/21 10:50:00,125.1,-3.1
2023/02/21 11:00:00,124.8,-1.7
2023/02/21 11:10:00,125.0,-2.2
2023/02/21 11:20:00,124.9,-2.4
2023/02/21 11:30:00,124.7,-2.2
2023/02/21 11:40:00,124.3,-2.0
2023/02/21 11:50:00,124.3,-1.7
2023/02/21 12:00:00,124.2,-2.1
2023/02/21 12:10:00,124.1,-2.5
2023/02/21 12:20:00,123.8,-1.4
2023/02/21 12:30:00,124.1,-1.1
2023/02/21 12:40:00,124.0,-1.8
2023/02/21 12:50:00,124.0,-1.8
2023/02/21 13:00:00,124.1,-3.3
2023/02/21 13:10:00,124.1,-2.9
2023/02/21 13:20:00,123.7,-3.1
2023/02/21 13:30:00,123.6,-3.0
2023/02/21 13:40:00,123.7,-3.3
2023/02/21 13:50:00,124.0,-2.7
2023/02/21 14:00:00,124.0,-2.3
2023/02/21 14:10:00,124.1,-2.5
2023/02/21 14:20:00,123.6,-3.0
2023/02/21 14:30:00,123.2,-2.4
2023/02/21 14:40:00,123.1,-2.4
2023/02/21 14:50:00,122.9,-2.2
2023/02/21 15:00:00,122.8,-2.4
2023/02/21 15:10:00,123.0,-3.4
2023/02/21 15:20:00,123.3,-2.6
2023/02/21 15:30:00,123.3,-2.5
2023/02/21 15:40:00,123.4,-3.5
2023/02/21 15:50:00,123.0,-3.3
2023/02/21 16:00:00,122.9,-2.9
2023/02/21 16:10:00,123.0,-2.9
2023/02/21 16:20:00,123.0,-3.0
2023/02/21 16:30:00,123.3,-3.5
2023/02/21 16:40:00,123.6,-4.0
2023/02/21 16:50:00,124.0,-3.9
2023/02/21 17:00:00,124.0,-4.1
2023/02/21 17:10:00,124.2,-4.6
2023/02/21 17:20:00,124.5,-4.1
2023/02/21 17:30:00,124.5,-4.2
2023/02/21 17:40:00,124.5,-4.1
2023/02/21 17:50:00,124.8,-4.2
2023/02/21 18:00:00,124.8,-4.2
2023/02/21 18:10:00,124.3,-4.3
2023/02/21 18:20:00,124.0,-4.2
2023/02/21 18:30:00,123.5,-4.3
2023/02/21 18:40:00,123.3,-4.3
2023/02/21 18:50:00,123.4,-4.2
2023/02/21 19:00:00,123.6,-4.3
2023/02/21 19:10:00,124.3,-4.4
2023/02/21 19:20:00,124.4,-4.5
2023/02/21 19:30:00,124.3,-4.4
2023/02/21 19:40:00,124.2,-4.2
2023/02/21 19:50:00,124.5,-4.0
2023/02/21 20:00:00,125.2,-4.4
2023/02/21 20:10:00,125.1,-4.1
2023/02/21 20:20:00,125.3,-4.2
2023/02/21 20:30:00,125.3,-4.2
2023/02/21 20:40:00,125.3,-4.0
2023/02/21 20:50:00,125.4,-4.3
2023/02/21 21:00:00,125.4,-4.3
2023/02/21 21:10:00,125.3,-4.1
2023/02/21 21:20:00,125.0,-4.1
2023/02/21 21:30:00,124.8,-4.3
2023/02/21 21:40:00,125.0,-4.2
2023/02/21 21:50:00,125.3,-4.1
2023/02/21 22:00:00,125.3,-4.4
2023/02/21 22:10:00,125.2,-4.1
2023/02/21 22:20:00,125.1,-4.3
2023/02/21 22:30:00,125.0,-4.3
2023/02/21 22:40:00,124.7,-4.2
2023/02/21 22:50:00,124.4,-4.2
2023/02/21 23:00:00,124.7,-4.2
2023/02/21 23:10:00,125.0,-4.3
2023/02/21 23:20:00,125.0,-4.3
2023/02/21 23:30:00,124.7,-4.0
2023/02/21 23:40:00,124.8,-4.1
2023/02/21 23:50:00,124.9,-4.2
